[[{"header":{"parameterUnit":"m.s-1","parameterCategory":1,"la1":30.2991,"la2":30.254,"lo1":-89.0895,"lo2":-89.0444,"dy":0.0017,"dx":0.0017,"nx":28,"ny":28,"refTime":"2025-03-15T21:00:00:Z","depth":0,"parameterNumber":2,"parameterNumberName":"U-component_of_WINDS"},"data":[0,0,0,0,0,0,0,0,0,0,0,0,0,0,0,0,0,0,0,0,0,0,0,0,0,0,0,0,0,0,0,0,0,0,0,0,0,0,0,0,0,0,0,0,0,0,0,0,0,0,0,0,0,0,0,0,0,0,-2.5615,-2.5616,0,-2.571,-2.5711,-2.5712,-2.5766,-2.5766,-2.5766,-2.5767,-2.5864,-2.5866,-2.5869,0,0,0,0,0,0,0,0,0,0,0,0,0,-2.5482,-2.5484,-2.5615,-2.5616,-2.5617,-2.571,-2.5711,-2.5712,-2.5766,-2.5766,-2.5767,-2.5767,-2.5863,-2.5866,-2.5869,0,0,0,0,0,0,0,0,0,0,0,0,0,-2.5555,-2.5485,-2.5615,-2.5655,-2.566,-2.5709,-2.5711,-2.5713,-2.5766,-2.5766,-2.5767,-2.5767,-2.5862,-2.5866,-2.5869,-2.5886,0,0,-2.588,-2.5882,0,0,0,0,0,0,0,0,-2.555,-2.5559,-2.5648,-2.5653,-2.5658,-2.5726,-2.57,-2.5771,-2.5766,-2.5726,-2.5767,-2.5767,-2.5818,-2.5825,-2.5842,-2.589,-2.5894,-2.5881,-2.5883,-2.5884,-2.5885,0,0,0,0,0,0,0,-2.5545,-2.5556,-2.5653,-2.565,-2.5655,-2.5669,-2.568,-2.5713,-2.5769,-2.5729,-2.5733,-2.5744,-2.5821,-2.5839,-2.5845,-2.5896,-2.588,-2.5884,-2.5886,-2.5887,-2.5963,-2.5963,0,0,0,0,0,0,-2.5534,-2.5551,-2.565,-2.5655,-2.5604,-2.5671,-2.5683,-2.5704,-2.5769,-2.5779,-2.5744,-2.5746,-2.5832,-2.5841,-2.5849,-2.5873,-2.5884,-2.5888,-2.589,-2.5964,-2.5963,-2.5963,0,0,0,0,0,0,-2.5531,-2.5542,-2.5646,-2.5605,-2.5619,-2.5673,-2.5696,-2.5706,-2.5724,-2.578,-2.579,-2.5752,-2.5833,-2.5844,-2.5876,-2.5877,-2.5889,-2.5893,-2.5964,-2.5964,-2.5963,-2.5921,0,0,0,0,0,0,-2.5527,-2.5541,-2.5547,-2.5604,-2.5621,-2.5671,-2.5696,-2.5708,-2.573,-2.5734,-2.579,-2.58,-2.5834,-2.5871,-2.588,-2.5882,-2.5895,-2.5964,-2.5964,-2.5963,-2.5922,-2.5919,-2.5917,0,0,0,0,0,-2.5522,-2.5531,-2.5547,-2.5559,-2.563,-2.5671,-2.5681,-2.572,-2.573,-2.5737,-2.5773,-2.5798,-2.5875,-2.5874,-2.5884,-2.5888,-2.5964,-2.5964,-2.5963,-2.5924,-2.592,-2.5917,0,0,0,0,0,0,-2.5472,-2.5539,-2.5558,-2.5586,-2.5622,-2.568,-2.569,-2.5715,-2.5749,-2.5752,-2.5799,-2.5811,-2.584,-2.5867,-2.5864,-2.5908,-2.5923,-2.5924,-2.5889,-2.5885,-2.5883,-2.5875,-2.5898,0,0,0,0,0,-2.5465,-2.5493,-2.555,-2.5569,-2.5587,-2.5635,-2.5655,-2.5682,-2.5722,-2.5738,-2.5776,-2.5814,-2.5847,-2.5868,-2.5901,-2.5927,-2.594,-2.5935,-2.5932,-2.5929,-2.593,-2.5947,-2.5945,-2.5962,-2.5962,-2.5962,0,0,-2.5449,-2.5489,-2.5504,-2.556,-2.5592,-2.562,-2.5648,-2.5676,-2.5698,-2.5742,-2.5775,-2.5805,-2.5851,-2.588,-2.5895,-2.5904,-2.5928,-2.5929,-2.5926,-2.5929,-2.5946,-2.5944,-2.5943,-2.5962,-2.5962,-2.5962,0,0,-2.5436,-2.5468,-2.5489,-2.552,-2.5567,-2.56,-2.5605,-2.5659,-2.5681,-2.5715,-2.5749,-2.5776,-2.5832,-2.5863,-2.5886,-2.5886,-2.591,-2.5895,-2.588,-2.5895,-2.5894,-2.5893,-2.5893,-2.5893,-2.5896,-2.5896,-2.5896,0,-2.5411,-2.5454,-2.5496,-2.5523,-2.5547,-2.5588,-2.561,-2.5638,-2.5694,-2.571,-2.5719,-2.5791,-2.5824,-2.5862,-2.5862,-2.5879,-2.5887,-2.5889,-2.5891,-2.589,-2.589,-2.5891,-2.5891,-2.5894,-2.5894,-2.5894,-2.5895,0,-2.5421,-2.5451,-2.5461,-2.5514,-2.554,-2.5563,-2.5609,-2.563,-2.5656,-2.5687,-2.5722,-2.5764,-2.5807,-2.5819,-2.5843,-2.586,-2.5864,-2.5881,-2.5897,-2.5885,-2.5887,-2.5888,-2.5891,-2.5892,-2.5892,-2.5893,0,0,-2.5378,-2.5455,-2.5458,-2.5483,-2.5539,-2.5563,-2.5589,-2.5632,-2.5649,-2.5686,-2.571,-2.5757,-2.5773,-2.5799,-2.5828,-2.5842,-2.584,-2.5858,-2.586,-2.5853,-2.5862,-2.5849,-2.5848,-2.5856,-2.5857,-2.5857,-2.5858,0,-2.5373,-2.5421,-2.546,-2.5494,-2.5522,-2.5563,-2.5586,-2.5623,-2.5654,-2.5683,-2.5717,-2.5749,-2.5768,-2.5785,-2.58,-2.5837,-2.5842,-2.5837,-2.5879,-2.588,-2.5866,-2.5849,-2.5835,-2.5834,-2.5859,-2.5859,-2.5859,0,-2.5373,-2.5409,-2.5445,-2.5499,-2.5513,-2.5532,-2.5575,-2.5602,-2.5645,-2.5667,-2.5697,-2.5727,-2.5757,-2.577,-2.5813,-2.5809,-2.5828,-2.5849,-2.585,-2.5855,-2.5869,-2.5854,-2.5835,-2.5834,-2.586,-2.586,-2.586,0,-2.5338,-2.5396,-2.5426,-2.5446,-2.5509,-2.5522,-2.555,-2.5593,-2.5617,-2.5654,-2.567,-2.571,-2.5732,-2.5763,-2.5804,-2.5809,-2.5842,-2.5859,-2.5861,-2.586,-2.5866,-2.5865,-2.585,-2.5879,-2.5879,-2.5879,-2.5879,0,-2.5328,-2.5349,-2.5411,-2.5429,-2.5454,-2.5499,-2.5523,-2.5554,-2.5593,-2.5618,-2.5656,-2.5679,-2.5731,-2.5761,-2.5794,-2.5824,-2.5834,-2.5853,-2.5861,-2.5849,-2.5847,-2.5863,-2.5864,-2.5879,-2.5879,-2.5879,-2.5879,0,-2.5293,-2.5336,-2.5371,-2.5428,-2.5443,-2.5459,-2.5509,-2.5529,-2.5562,-2.5593,-2.5604,-2.5656,-2.5693,-2.5737,-2.5788,-2.581,-2.5838,-2.585,-2.5823,-2.5828,-2.5828,-2.5828,-2.5823,-2.5825,-2.5851,-2.5851,-2.5851,0,-2.5284,-2.5301,-2.536,-2.538,-2.5406,-2.5437,-2.5461,-2.5507,-2.5531,-2.5582,-2.5596,-2.5636,-2.567,-2.5728,-2.577,-2.581,-2.5824,-2.5819,-2.583,-2.5818,-2.5824,-2.5823,-2.5825,-2.5816,-2.5816,-2.5815,-2.5815,0,-2.5263,-2.5283,-2.5316,-2.5357,-2.5384,-2.5419,-2.5455,-2.5469,-2.5522,-2.5547,-2.5585,-2.5612,-2.5664,-2.5704,-2.5749,-2.5778,-2.5806,-2.5811,-2.5814,-2.5802,-2.5786,-2.5795,-2.5815,-2.5811,-2.5812,-2.5812,-2.5812,-2.5812,-2.5241,-2.5258,-2.5303,-2.5339,-2.5371,-2.5404,-2.5425,-2.5461,-2.5494,-2.554,-2.5565,-2.5603,-2.5648,-2.5712,-2.574,-2.5771,-2.578,-2.5784,-2.5785,-2.5785,-2.5782,-2.5781,-2.5779,-2.5779,-2.5779,-2.5779,-2.578,0,-2.5222,-2.5253,-2.5286,-2.5335,-2.5363,-2.5386,-2.5428,-2.545,-2.5483,-2.5522,-2.5555,-2.56,-2.5639,-2.5685,-2.5727,-2.5743,-2.5756,-2.5752,-2.5751,-2.5758,-2.5771,-2.5764,-2.574,-2.574,-2.574,-2.574,-2.574,-2.574,-2.5216,-2.5247,-2.5272,-2.532,-2.5351,-2.5388,-2.541,-2.5441,-2.5472,-2.552,-2.5552,-2.5582,-2.5625,-2.567,-2.5707,-2.572,-2.5734,-2.5726,-2.5742,-2.5753,-2.5757,-2.576,-2.5754,-2.5728,-2.5728,-2.5727,-2.5727,-2.5727]},{"header":{"parameterUnit":"m.s-1","parameterCategory":1,"la1":30.2991,"la2":30.254,"lo1":-89.0895,"lo2":-89.0444,"dy":0.0017,"dx":0.0017,"nx":28,"ny":28,"refTime":"2025-03-15T21:00:00:Z","depth":0,"parameterNumber":3,"parameterNumberName":"V-component_of_WINDS"},"data":[0,0,0,0,0,0,0,0,0,0,0,0,0,0,0,0,0,0,0,0,0,0,0,0,0,0,0,0,0,0,0,0,0,0,0,0,0,0,0,0,0,0,0,0,0,0,0,0,0,0,0,0,0,0,0,0,0,0,9.7164,9.7164,0,9.7178,9.7178,9.7178,9.7129,9.7127,9.7126,9.7124,9.7136,9.7138,9.714,0,0,0,0,0,0,0,0,0,0,0,0,0,9.7093,9.7094,9.7164,9.7164,9.7164,9.7178,9.7178,9.7178,9.7129,9.7127,9.7125,9.7123,9.7136,9.7138,9.714,0,0,0,0,0,0,0,0,0,0,0,0,0,9.7117,9.7095,9.7163,9.7141,9.7139,9.7178,9.7178,9.7178,9.7129,9.7127,9.7125,9.7123,9.7135,9.7137,9.714,9.7201,0,0,9.7148,9.7149,0,0,0,0,0,0,0,0,9.7116,9.712,9.7144,9.7143,9.7141,9.7149,9.7158,9.7186,9.713,9.7133,9.7124,9.7122,9.7142,9.7144,9.7152,9.7201,9.7202,9.7148,9.715,9.7151,9.7151,0,0,0,0,0,0,0,9.7114,9.7119,9.7169,9.7144,9.7142,9.713,9.7131,9.7163,9.715,9.7132,9.7129,9.7131,9.7141,9.7149,9.7151,9.7202,9.7148,9.715,9.7152,9.7153,9.7306,9.7308,0,0,0,0,0,0,9.7116,9.7118,9.7169,9.717,9.7123,9.7133,9.7134,9.7149,9.7149,9.7147,9.7133,9.7129,9.7146,9.7149,9.7152,9.7225,9.7151,9.7153,9.7155,9.7303,9.7306,9.7309,0,0,0,0,0,0,9.7114,9.7121,9.7168,9.7143,9.7148,9.7137,9.7153,9.715,9.7158,9.715,9.7147,9.7144,9.7144,9.7148,9.719,9.7225,9.7154,9.7157,9.73,9.7304,9.7308,9.7371,0,0,0,0,0,0,9.7112,9.712,9.7143,9.7144,9.715,9.7206,9.7155,9.7152,9.7163,9.7158,9.716,9.7158,9.7143,9.7186,9.7193,9.7227,9.7159,9.7297,9.7302,9.7307,9.7366,9.7377,9.7386,0,0,0,0,0,9.711,9.7159,9.7144,9.7151,9.7178,9.7208,9.7211,9.7194,9.7166,9.7189,9.7185,9.7158,9.722,9.7191,9.7197,9.7233,9.7295,9.7301,9.7306,9.7361,9.7374,9.7386,0,0,0,0,0,0,9.716,9.7158,9.7142,9.7192,9.7201,9.72,9.7228,9.7208,9.7224,9.7218,9.7195,9.7196,9.7242,9.7242,9.7209,9.7294,9.7253,9.726,9.7292,9.7305,9.7315,9.7314,9.7161,0,0,0,0,0,9.7177,9.7203,9.7199,9.7244,9.725,9.7239,9.7251,9.7238,9.7245,9.7248,9.7246,9.7254,9.7276,9.729,9.7309,9.7366,9.7367,9.7394,9.7404,9.7412,9.7419,9.7452,9.7465,9.7328,9.7328,9.7328,0,0,9.7212,9.7214,9.7231,9.7255,9.726,9.7287,9.7242,9.7271,9.7292,9.7252,9.7292,9.7292,9.7299,9.735,9.7372,9.7351,9.7457,9.742,9.7426,9.7428,9.7459,9.7472,9.7484,9.7332,9.7331,9.733,0,0,9.729,9.7294,9.7333,9.7341,9.735,9.7343,9.7353,9.7355,9.7354,9.7395,9.7367,9.739,9.7427,9.7435,9.7444,9.753,9.7507,9.7537,9.7589,9.7621,9.7632,9.7642,9.7675,9.7686,9.7544,9.7544,9.7544,0,9.7332,9.7373,9.7356,9.7389,9.7401,9.7369,9.741,9.7417,9.7432,9.7441,9.7418,9.7467,9.7469,9.7522,9.7544,9.7551,9.7563,9.7536,9.7632,9.7642,9.765,9.7681,9.7693,9.7547,9.7547,9.7547,9.7546,0,9.7426,9.7455,9.7485,9.7503,9.7519,9.7555,9.7544,9.7562,9.7549,9.7544,9.7588,9.759,9.7611,9.7623,9.7608,9.7675,9.7662,9.7636,9.7594,9.7667,9.7696,9.7708,9.7553,9.7551,9.755,9.7549,0,0,9.7532,9.7544,9.7556,9.7565,9.7575,9.7597,9.7634,9.7656,9.7673,9.7685,9.7716,9.7751,9.7728,9.7738,9.7724,9.7753,9.7825,9.7723,9.7723,9.7743,9.7901,9.7922,9.7936,9.7809,9.7812,9.7813,9.7901,0,9.7611,9.7675,9.7663,9.7725,9.7753,9.7725,9.7757,9.7768,9.7766,9.7789,9.7786,9.7812,9.7779,9.7785,9.7812,9.781,9.7856,9.7803,9.7838,9.784,9.7838,9.795,9.7971,9.8054,9.7912,9.7914,9.7915,0,9.771,9.773,9.7796,9.7806,9.7817,9.7846,9.7868,9.789,9.7902,9.7899,9.7913,9.7895,9.7932,9.7891,9.7943,9.7908,9.7922,9.7923,9.7926,9.7929,9.7882,9.7957,9.8079,9.8092,9.7933,9.7931,9.793,0,9.7785,9.7827,9.7873,9.7882,9.7893,9.7915,9.7921,9.7931,9.7946,9.7965,9.7975,9.7997,9.801,9.8028,9.8017,9.7987,9.8072,9.8029,9.8071,9.8072,9.809,9.8089,9.8217,9.8097,9.8097,9.8097,9.8097,0,9.7874,9.7916,9.7907,9.7936,9.7983,9.7969,9.8016,9.8018,9.8028,9.8057,9.8033,9.806,9.8044,9.8071,9.8063,9.8109,9.8114,9.8113,9.811,9.8115,9.8116,9.8124,9.8118,9.81,9.81,9.8099,9.8098,0,9.7965,9.796,9.8009,9.8018,9.8021,9.8056,9.8063,9.809,9.8088,9.8125,9.8132,9.8129,9.8159,9.8151,9.8182,9.8177,9.8236,9.8225,9.8232,9.823,9.8274,9.827,9.8412,9.8431,9.8299,9.83,9.8301,0,9.8022,9.8055,9.8068,9.8087,9.8095,9.8125,9.8142,9.813,9.8149,9.8168,9.8193,9.8222,9.8244,9.8294,9.8294,9.8319,9.831,9.8358,9.8313,9.8319,9.8312,9.8311,9.8315,9.8367,9.8368,9.8369,9.837,0,9.8126,9.8123,9.8149,9.8176,9.8198,9.8217,9.8235,9.8251,9.8241,9.8264,9.8296,9.8314,9.8349,9.8378,9.8402,9.8407,9.8388,9.8385,9.8396,9.8402,9.8406,9.8406,9.8258,9.8382,9.838,9.838,9.8379,9.8379,9.8203,9.8231,9.8247,9.8278,9.8291,9.8309,9.8336,9.8339,9.8366,9.8394,9.8386,9.8423,9.8437,9.8468,9.8477,9.8506,9.8488,9.8504,9.8508,9.8512,9.8519,9.8401,9.851,9.851,9.8509,9.8509,9.8509,0,9.8307,9.8316,9.8345,9.8372,9.8397,9.8379,9.8398,9.842,9.8454,9.847,9.8494,9.8532,9.8562,9.8565,9.8593,9.8616,9.8608,9.8624,9.8623,9.8625,9.8533,9.8521,9.863,9.863,9.863,9.863,9.863,9.863,9.8364,9.8413,9.8413,9.8469,9.8478,9.8516,9.8529,9.8546,9.8559,9.8604,9.8629,9.8632,9.8644,9.8673,9.87,9.87,9.8712,9.8732,9.8729,9.8643,9.8631,9.8619,9.8608,9.8734,9.8734,9.8819,9.882,9.882]}]]